This is the latest recevied weather packets stored in our database for station/object KM4CBK. If no packets are shown the sender has not sent any weather packets the latest 10 day(s).
| Time | Temp. | Humidity | Pressure | Rain* | Wind** | Luminosity | Snow |
|---|---|---|---|---|---|---|---|
| 1777566536 | 20° C | 80% | 1012.2 hPa | 0 mm | - | 230 W/m² | - |
| 1777566233 | 20.56° C | 80% | 1012 hPa | 0 mm | - | 240 W/m² | - |
| 1777565930 | 21.11° C | 79% | 1012.1 hPa | 0 mm | - | 300 W/m² | - |
| 1777565625 | 20.56° C | 80% | 1012.1 hPa | 0 mm | - | 217 W/m² | - |
| 1777565323 | 20° C | 80% | 1012.2 hPa | 0 mm | - | 573 W/m² | - |
| 1777565018 | 20° C | 82% | 1012.1 hPa | 0 mm | - | 399 W/m² | - |
| 1777564714 | 20° C | 81% | 1012.1 hPa | 0 mm | - | 295 W/m² | - |
| 1777564409 | 19.44° C | 81% | 1011.9 hPa | 0 mm | - | 215 W/m² | - |
| 1777564106 | 20° C | 82% | 1012.1 hPa | 0 mm | - | 171 W/m² | - |
| 1777563802 | 20° C | 82% | 1011.9 hPa | 0 mm | - | 275 W/m² | - |
| 1777563499 | 19.44° C | 83% | 1012 hPa | 0 mm | - | 198 W/m² | - |
| 1777563198 | 19.44° C | 83% | 1012 hPa | 0 mm | - | 228 W/m² | - |
| 1777562894 | 19.44° C | 83% | 1011.9 hPa | 0 mm | - | 245 W/m² | - |
| 1777562590 | 19.44° C | 87% | 1011.6 hPa | 0 mm | - | 281 W/m² | - |
| 1777562290 | 18.89° C | 86% | 1011.9 hPa | 0 mm | - | 153 W/m² | - |
| 1777561986 | 18.89° C | 87% | 1011.8 hPa | 0 mm | - | 127 W/m² | - |
| 1777561684 | 18.89° C | 89% | 1011.5 hPa | 0 mm | - | 109 W/m² | - |
| 1777561378 | 18.89° C | 89% | 1011.3 hPa | 0 mm | - | 87 W/m² | - |
| 1777561074 | 18.89° C | 89% | 1011.8 hPa | 0 mm | - | 82 W/m² | - |
| 1777560770 | 18.89° C | 90% | 1011.4 hPa | 0 mm | - | 110 W/m² | - |
| 1777560467 | 18.89° C | 89% | 1011.4 hPa | 0 mm | - | 94 W/m² | - |
| 1777560165 | 18.89° C | 89% | 1011.3 hPa | 0 mm | - | 99 W/m² | - |
| 1777559861 | 18.89° C | 89% | 1011.1 hPa | 0 mm | - | 61 W/m² | - |
| 1777559557 | 18.89° C | 89% | 1011.4 hPa | 0 mm | - | 120 W/m² | - |
| 1777559255 | 19.44° C | 91% | 1011.3 hPa | 0 mm | - | 121 W/m² | - |
* Rain latest hour (hover to see other rain measurements)
** Current wind speed in m/s (hover to see current wind gust speed)